Skip Page Navigation
NASA JPL Caltech
NASA Logo - Jet Propulsion Laboratory + View the NASA Portal
+ Near-Earth Object (NEO) Program
Search JPL
JPL Home Earth Solar System Stars & Galaxies Technology
JPL Solar System Dynamics
BODIES ORBITS EPHEMERIDES TOOLS PHYSICAL DATA DISCOVERY FAQ SITE MAP
JPL Small-Body Database Browser
Search: [ help ]  
35243 (1995 TZ1)
Classification: Main-belt Asteroid          SPK-ID: 2035243
Ephemeris | Orbit Diagram | Orbital Elements | Physical Parameters | Discovery Circumstances | Close-Approach Data ]

[ show orbit diagram ]
Orbital Elements at Epoch 2457000.5 (2014-Dec-09.0) TDB
Reference: JPL 11 (heliocentric ecliptic J2000)
 Element Value Uncertainty (1-sigma)   Units 
e .2385861318352097 7.4573e-08  
a 2.630449267618801 2.0123e-08 AU
q 2.002860551868871 1.9575e-07 AU
i 7.631852199744127 8.7938e-06 deg
node 42.66322897576936 4.9155e-05 deg
peri 201.3008192822759 5.1868e-05 deg
M 312.0759800907653 2.0818e-05 deg
tp 2457207.940743934472
(2015-Jul-04.44074393)
9.1233e-05 JED
period 1558.272197487752
4.27
1.7881e-05
4.896e-08
d
yr
n .231025106255757 2.651e-09 deg/d
Q 3.258037983368731 2.4924e-08 AU
  Orbit Determination Parameters
   # obs. used (total)      661  
   data-arc span      7095 days (19.43 yr)  
   first obs. used      1995-10-14  
   last obs. used      2015-03-18  
   planetary ephem.      DE431  
   SB-pert. ephem.      SB431-BIG16  
   condition code      0  
   fit RMS      .61512  
   data source      ORB  
   producer      Otto Matic  
   solution date      2015-Apr-07 17:43:18  

Additional Information
 Earth MOID = .993918 AU 
 T_jup = 3.347 
[ show covariance matrix ]

Ephemeris | Orbit Diagram | Orbital Elements | Physical Parameters | Discovery Circumstances | Close-Approach Data ]

Physical Parameter Table
Parameter Symbol Value Units Sigma Reference Notes
absolute magnitude H 14.3 mag n/a MPO324628  

35243 (1995 TZ1)          Discovered 1995-Oct-14 by BAO Schmidt CCD Asteroid Program at Xinglong
Reference: 20020227/Numbers.arcLast Updated: 2004-04-19

[ show close-approach data ]
Alternate Designations
 1995 TZ1 = 1998 KR62 
Ephemeris | Orbit Diagram | Orbital Elements | Physical Parameters | Discovery Circumstances | Close-Approach Data ]
ABOUT SSD CREDITS/AWARDS PRIVACY/COPYRIGHT GLOSSARY LINKS
FirstGov 2015-May-23 02:44 UT
(server date/time)  
NASA Home Page
Site Manager:   Ryan S. Park
Webmaster  Alan B. Chamberlin